Regional Weather Roundup
Issued by NWS

Home | Current Version | Previous Version | Graphics & Text | Print | Product List | Glossary On
Versions: 1 2 3 4 5 6 7 8 9 10 11 12 13 14 15 16 17 18 19 20 21 22 23 24 25 26 27 28 29 30 31 32 33 34 35 36 37 38 39 40 41 42 43 44 45 46 47 48 49 50
000
ASUS45 KTFX 022210
RWRMT
MONTANA REGIONAL WEATHER ROUNDUP
NATIONAL WEATHER SERVICE GREAT FALLS MT
400 PM MDT SUN AUG 02 2015

NOTE: "FAIR" INDICATES FEW OR NO CLOUDS BELOW 12000 FEET WITH NO
SIGNIFICANT WEATHER AND/OR OBSTRUCTIONS TO VISIBILITY.

MTZ001>007-043-022300-
WEST OF THE DIVIDE

CITY           SKY/WX    TMP DP  RH WIND       PRES   REMARKS
KALISPELL      CLEAR     93  31  11 S13       29.91F
MISSOULA       SUNNY     91  28  10 VRB5      29.94F
BUTTE          SUNNY     88  21   8 N3        30.10F
MULLAN PASS    SUNNY     83  21  10 VRB6      30.16F
DEER LODGE       N/A     88  28  11 N5        30.07F
EUREKA           N/A     95  36  12 S5        29.88F HX  90
HAMILTON         N/A     90  39  17 N8        29.95F
LIBBY            N/A     97  28   9 NW5       29.87F HX  91
PLAINS           N/A     99  35  10 SE2       29.89F HX  93
RONAN            N/A     92  30  11 E2        30.00F
$$

MTZ008-052>055-022300-
SOUTHWEST MONTANA

CITY           SKY/WX    TMP DP  RH WIND       PRES   REMARKS
BOZEMAN        SUNNY     89  25  10 W7        30.03F
DILLON         SUNNY     91  26   9 NE9       30.06F
W YELLOWSTONE  LGT RAIN  84  27  12 SW8       30.17F
THREE FORKS      N/A     90  23   9 SE3       30.02F
TWIN BRIDGES     N/A     90  26  10 SE3       30.03F
$$

MTZ009-010-012-014-046-048-049-054-022300-
EAST SLOPES AND CENTRAL MONTANA

CITY           SKY/WX    TMP DP  RH WIND       PRES   REMARKS
CUT BANK       SUNNY     82  45  27 VRB6      30.00F
GREAT FALLS    MOSUNNY   84  48  28 SE6       30.01F
MALMSTROM AFB  MOSUNNY   83  49  30 SW1       30.00F
HELENA         SUNNY     92  37  14 N9        29.98F
CONRAD           N/A     86  51  29 E6        30.03F
$$

MTZ011-013-016-021-045-047-050-051-022300-
NORTH CENTRAL MONTANA

CITY           SKY/WX    TMP DP  RH WIND       PRES   REMARKS
HAVRE          SUNNY     86  51  29 CALM      29.98F
LEWISTOWN      SUNNY     85  49  28 E10       30.06F
CHINOOK          N/A     82  52  34 E10       29.98F
FORT BENTON      N/A     84  52  32 E5        29.98F
$$

MTZ017>020-022>027-061-062-022300-
NORTHEAST MONTANA

CITY           SKY/WX    TMP DP  RH WIND       PRES   REMARKS
GLASGOW        SUNNY     83  48  29 MISG      29.99F
JORDAN           N/A     84  46  26 N7        30.02F
SIDNEY         SUNNY    N/A N/A N/A NW10G16   29.98S
WOLF POINT     SUNNY     86  46  24 N10       29.99F
MALTA            N/A     85  52  32 E1        29.97F
PLENTYWOOD       N/A     77  46  33 N12G20    30.01S
POPLAR           N/A     81  46  30 NW12G17   29.99F
$$

MTZ028>42-056>058-022300-
SOUTHCENTRAL AND SOUTHEAST MONTANA

CITY           SKY/WX    TMP DP  RH WIND       PRES   REMARKS
BAKER          SUNNY     86  46  24 N9G20     30.02S
BILLINGS       PTSUNNY   86  45  23 E10       30.03F
LIVINGSTON     SUNNY     92  36  14 E13       30.03F
MILES CITY     SUNNY     87  47  24 VRB7      29.99F
FORSYTH          N/A     86  43  22 E10G18    29.98F
LAUREL           N/A     86  47  25 NE7       30.01F
ROUNDUP          N/A     86  42  21 E6        29.94F
$$

REGIONAL REPORTS...DAKOTAS

CITY           SKY/WX    TMP DP  RH WIND       PRES   REMARKS
WILLISTON      SUNNY     81  47  30 NW13G20   29.98F
MINOT          PTSUNNY   79  49  34 NW14G22   29.93F
DICKINSON      SUNNY     82  46  28 N14       29.97F
CROSBY         FAIR      77  48  36 NW13G20   29.99S
BISMARCK       SUNNY     80  52  37 NW16      29.93F
GRAND FORKS    MOSUNNY   77  45  32 NW18G25   29.82S
FARGO          SUNNY     79  48  33 NW17G26   29.83S
BUFFALO SD       N/A     85  47  26 NE9       29.94F
RAPID CITY     SUNNY     86  53  32 NE5       29.99F
$$

REGIONAL REPORTS...WYOMING/IDAHO/WASHINGTON

CITY           SKY/WX    TMP DP  RH WIND       PRES   REMARKS
GILLETTE       SUNNY     91  41  17 N14G23    30.01S
SHERIDAN       SUNNY     91  38  15 NW15G31   30.01F
BUFFALO WY     SUNNY     86  39  19 N20G28    30.08F
CODY           SUNNY     82  45  26 N15       30.08F
YELLOWSTONE LA   N/A     79  30  16 VRB3      30.29F
IDAHO FALLS    SUNNY     96  26   8 NE8       30.00F HX  90
SALMON         SUNNY     91  41  17 NW6       29.91F
BOISE          MOSUNNY  100  40  12 W7        29.84F HX  95
SPOKANE        CLOUDY    97  19   6 SW8       29.88F HX  90
$$

REGIONAL REPORTS...ALBERTA

CITY           SKY/WX    TMP DP  RH WIND       PRES   REMARKS
EDMONTON       MOSUNNY   79  48  34 SE3       29.95F
CALGARY        MOSUNNY   79  52  38 SE15G21   29.99F
LETHBRIDGE     PTSUNNY   84  48  28 SE6       29.97F
MEDICINE HAT   MOSUNNY   84  48  28 N3        29.98F
WATERTON GATE    N/A     81  54  39 E6          N/A
MILK RIVER       N/A     84  48  28 S8          N/A
ONEFOUR          N/A     82  45  26 SE6         N/A
$$

REGIONAL REPORTS...SASKATCHEWAN

CITY           SKY/WX    TMP DP  RH WIND       PRES   REMARKS
SWIFT CURRENT  SUNNY     75  48  38 W5        30.04F
REGINA         MOSUNNY   77  48  36 NW15G23   30.00F
SASKATOON      MOSUNNY   77  48  36 N10       30.00F
CYPRESS HILLS    N/A     75  48  38 E5          N/A
VAL MARIE        N/A     79  52  38 NE7         N/A
ROCKGLEN         N/A     73  50  43 N7          N/A
ASSINIBOIA       N/A     79  52  38 S3          N/A
$$


USA.gov is the U.S. government's official web portal to all federal, state and local government web resources and services.